Location: Newark
(13.8117°N, 3.6025°W)
Time: 18:14:49
(UTC+00:00)

Explorer 11/Cluster Stage 4 - Pass Details

Date: 27 August 2019
Orbit: 467 x 1260 km, 28.8° (Epoch: 23 September)

Event Time Altitude Azimuth Distance (km) Brightness Sun altitude
Rises 10:35:44 0° 292° (WNW) 3,955 9.9 65.2°
Reaches altitude 10° 10:38:59 10° 304° (NW) 3,088 9.5 66.0°
Maximum altitude 10:45:24 27° 359° (N) 2,200 9.2 67.5°
Drops below altitude 10° 10:52:05 10° 53° (NE) 3,225 10.1 69.1°
Sets 10:55:34 0° 65° (ENE) 4,161 10.5 70.0°
